Location: New Canada
(47.1017°N, 68.5042°W)
Time: 06:21:13
(UTC+00:00)

EO-79 - Pass Details

Date: 07 April 2023
Orbit: 578 x 593 km, 98.0° (Epoch: 03 June)

Event Time Altitude Azimuth Distance (km) Brightness Sun altitude
Rises 06:34:58 0° 17° (NNE) 2,823 ? -30.1°
Reaches altitude 10° 06:37:10 10° 21° (NNE) 1,915 ? -29.9°
Enters shadow 06:39:49 36° 39° (NE) 935 ? -29.6°
